Location: Morlupo
(42.1333°N, 12.5000°E)
Time: 16:21:24
(UTC+00:00)

Cosmos 1437 - Pass Details

Date: 18 September 2020
Orbit: 365 x 369 km, 81.2° (Epoch: 26 October)

Event Time Altitude Azimuth Distance (km) Brightness Sun altitude
Rises 18:06:19 0° 351° (N) 2,257 6.8 -10.5°
Reaches altitude 10° 18:08:19 10° 352° (N) 1,400 5.7 -10.9°
Maximum altitude 18:11:21 83° 77° (ENE) 387 2.4 -11.4°
Drops below altitude 10° 18:14:22 10° 169° (S) 1,386 5.1 -12.0°
Enters shadow 18:16:16 - 170° (S) 2,207 6.2 -12.3°
